sat.trackr.live / text

‹ back to catalog

STARLINK-3626

NORAD 51792 · 2022-017AA

PAYLOAD ACTIVE UNKNOWN

§ Identity

Operator
Country
US
Launch date
2022-02-25
Launch site
AFWTR
Launch vehicle
Mass (kg)
RCS (m²)

Purposes: comms

External: N2YO · Heavens-Above · Gunter

§ Orbital elements

Epoch: 2026-09-20T04:29:47.082336Z

Period
93.90 min
Inclination
53.1606°
Eccentricity
0.0001201
Mean motion
15.33545027 rev/d
Perigee alt
464.4 km
Apogee alt
466.1 km
Semi-major
6,843.4 km
B*
-2.4950e-6
RAAN
181.3628°
Arg perigee
83.9821°
Mean anomaly
276.1318°
Rev number
25,353

§ Raw data

STARLINK-36261 51792U 22017AA  26263.18735049 -.00000455  00000+0 -24950-5 0  99922 51792  53.1606 181.3628 0001201  83.9821 276.1318 15.33545027253532

JSON: /api/v1/satellites/51792 · /tle

For live sub-satellite position, see the globe view (requires WebGL).

§ Visibility from observer

Set your observer location to see the next 7 days of passes ≥ 10°. The values pass through the URL so the page stays shareable.

No JS? Fill the form by hand. The geolocation button needs JavaScript.